Daggett-Barstow, CA

9:57 PM PDT on July 20, 2017 (GMT -0700)
Barstow-Daggett

Weather History for KDAG - March, 2014

Change the Weather History Date:

Monday, March 17, 2014

  Actual Average Record
Temperature  
Mean Temperature 71 °F 59 °F  
Max Temperature 81 °F 72 °F 92 °F (2007)
Min Temperature 57 °F 45 °F 31 °F (1955)
Degree Days  
Heating Degree Days 0    
Cooling Degree Days 6    
Growing Degree Days 21 (Base 50)    
Moisture  
Dew Point 24 °F    
Average Humidity 20    
Maximum Humidity 37    
Minimum Humidity 8    
Precipitation  
Precipitation 0.00 in 0.01 in 0.18 in (1979)
Month to date precipitation 0.34  
Year to date precipitation 1.60  
Sea Level Pressure  
Sea Level Pressure 29.80 in    
Wind  
Wind Speed 19 mph (West)    
Max Wind Speed 33 mph    
Max Gust Speed 46 mph    
Visibility 10 miles    
Events      
T = Trace of Precipitation, MM = Missing Value Source: NWS Daily Summary

Daily Weather History Graph

Daily Weather History Graph

Search for Another Location

Airport or City:

Trip Planner

Search our weather history database for the weather conditions in past years. The results will help you decide how hot, cold, wet, or windy it might be!

Date:

Astronomy

Mar. 17, 2014 Rise Set
Actual Time 6:54 AM PDT 6:56 PM PDT
Civil Twilight 6:29 AM PDT 7:21 PM PDT
Nautical Twilight 6:00 AM PDT 7:51 PM PDT
Astronomical Twilight 5:30 AM PDT 8:20 PM PDT
Moon 8:13 PM PDT (3/17) 7:16 AM PDT (3/17)
Length of Visible Light 12h 52m
Length of Day
12h 01m
Full, 99% of the Moon is Illuminated
Mar 17
Full
Mar 23
Last Quarter
Mar 30
New
Apr 7
First Quarter
Apr 15
Full

Hourly Weather History & Observations

Time (PDT) Temp. Dew Point Humidity Pressure Visibility Wind Dir Wind Speed Gust Speed Precip Events Conditions
12:50 AM 61.0 °F 24.1 °F 24% 30.02 in 10.0 mi West 8.1 mph - N/A   Clear
1:50 AM 63.0 °F 25.0 °F 24% 29.98 in 10.0 mi West 9.2 mph - N/A   Clear
2:50 AM 63.0 °F 30.0 °F 29% 29.94 in 10.0 mi West 20.7 mph - N/A   Clear
3:50 AM 61.0 °F 32.0 °F 34% 29.92 in 10.0 mi WNW 12.7 mph - N/A   Clear
4:50 AM 66.9 °F 25.0 °F 21% 29.90 in 10.0 mi West 15.0 mph - N/A   Clear
5:50 AM 66.0 °F 25.0 °F 21% 29.88 in 10.0 mi WSW 11.5 mph - N/A   Clear
6:50 AM 63.0 °F 28.9 °F 28% 29.88 in 10.0 mi West 9.2 mph - N/A   Clear
7:50 AM 66.0 °F 35.1 °F 32% 29.89 in 10.0 mi West 25.3 mph 32.2 mph N/A   Clear
8:50 AM 66.9 °F 37.0 °F 33% 29.88 in 10.0 mi WSW 31.1 mph 38.0 mph N/A   Partly Cloudy
9:50 AM 71.1 °F 34.0 °F 26% 29.86 in 10.0 mi West 26.5 mph 36.8 mph N/A   Clear
10:50 AM 73.9 °F 28.9 °F 19% 29.83 in 10.0 mi West 27.6 mph 40.3 mph N/A   Clear
11:50 AM 78.1 °F 24.1 °F 14% 29.80 in 10.0 mi WSW 32.2 mph 46.0 mph N/A   Clear
12:50 PM 80.1 °F 21.9 °F 12% 29.76 in 10.0 mi WSW 33.4 mph 42.6 mph N/A   Clear
1:50 PM 80.1 °F 18.0 °F 10% 29.72 in 10.0 mi West 29.9 mph 44.9 mph N/A   Clear
2:50 PM 81.0 °F 18.0 °F 10% 29.70 in 10.0 mi West 31.1 mph 41.4 mph N/A   Clear
3:50 PM 80.1 °F 12.0 °F 8% 29.68 in 10.0 mi West 32.2 mph 41.4 mph N/A   Clear
4:50 PM 80.1 °F 18.0 °F 10% 29.64 in 10.0 mi West 26.5 mph 34.5 mph N/A   Clear
5:17 PM 78.1 °F 17.1 °F 10% 29.71 in 10.0 mi West 29.9 mph 36.8 mph N/A   Mostly Cloudy
5:25 PM 77.0 °F 17.1 °F 10% 29.71 in 10.0 mi West 26.5 mph 36.8 mph N/A   Mostly Cloudy
5:50 PM 75.0 °F 17.1 °F 11% 29.65 in 10.0 mi West 24.2 mph 38.0 mph N/A   Scattered Clouds
6:50 PM 71.1 °F 19.0 °F 14% 29.66 in 10.0 mi West 27.6 mph 35.7 mph N/A   Clear
7:50 PM 68.0 °F 19.9 °F 16% 29.71 in 10.0 mi West 19.6 mph 28.8 mph N/A   Clear
8:50 PM 66.0 °F 21.0 °F 18% 29.72 in 10.0 mi West 20.7 mph - N/A   Clear
9:50 PM 63.0 °F 26.1 °F 25% 29.75 in 10.0 mi West 15.0 mph - N/A   Clear
10:50 PM 62.1 °F 28.0 °F 28% 29.77 in 10.0 mi WNW 12.7 mph - N/A   Clear
11:50 PM 57.9 °F 32.0 °F 37% 29.80 in 10.0 mi West 10.4 mph - N/A   Clear